Location: Unspecified
(0.0000°N, 0.0000°E)
Time: 14:59:33
(UTC+00:00)

N. Korean satellite - Pass Details

Date: 17 April 2021
Orbit: 452 x 499 km, 97.2° (Epoch: 15 April)

Event Time Altitude Azimuth Distance (km) Brightness Sun altitude
Rises 04:06:40 0° 48° (NE) 2,497 11.1 -27.7°
Reaches altitude 10° 04:10:25 10° 91° (E) 1,612 10.2 -26.8°
Maximum altitude 04:11:02 10° 101° (E) 1,587 10.0 -26.6°
Drops below altitude 10° 04:11:40 10° 111° (ESE) 1,610 9.9 -26.5°
Sets 04:15:23 0° 154° (SSE) 2,477 10.3 -25.6°
